Home > Weather > Changsha > Past weeks

Flag for China Past Weather in Changsha, Hunan, China — Yesterday and Last 2 Weeks

Now
79 °F

Clear.


Feels Like: 82 °F
Forecast: 76 / 91 °F
Wind: 3 mph from Southeast

Location: Changsha

Current Time: May 30, 2016 at 10:41:33 PM

Latest Report: May 30, 2016 at 10:00 PM


Visibility: 4 mi

Pressure: 29.71 "Hg

Humidity: 84%

Dew Point: 73 °F

Location of ChangshaLocation

Past Weather in Changsha — Graph

°F

Changsha Temperature Yesterday

Maximum temperature yesterday: 73 °F (at 2:00 PM)
Minimum temperature yesterday: 64 °F (at 1:00 AM)
Average temperature yesterday: 69 °F

High & Low Weather Summary for the Past Weeks

 TemperatureHumidityPressure
High86 °F (May 30, 5:00 PM)94% (May 16, 12:00 AM)30.12 "Hg (May 16, 12:00 AM)
Low55 °F (May 16, 4:00 AM)26% (May 16, 2:00 PM)29.68 "Hg (May 20, 2:00 AM)
Average68 °F83%29.84 "Hg
* Reported May 15 9:00 PM — May 30 9:00 PM, Changsha, Weather by CustomWeather, © 2016

Note: Actual official high and low records may vary slightly from our data, if they occured in-between our weather recording intervals... More about our weather records

Advertising

Changsha Weather History for the Previous 24 Hours

Scroll right to see more
 ConditionsComfort  
Time TempWeatherWind HumidityBarometerVisibility
9:00 PM
Mon, May 30
79 °FClear.1 mph84%29.71 "Hg5 mi
8:00 PM81 °FClear.1 mph79%29.68 "Hg10 mi
7:00 PM84 °FSunny.1 mph70%29.68 "Hg10 mi
6:00 PM86 °FPassing clouds.3 mph62%29.68 "HgN/A
5:00 PM86 °FPassing clouds.3 mph62%29.68 "HgN/A
4:00 PM84 °FPartly sunny.3 mph62%29.68 "HgN/A
3:00 PM84 °FPassing clouds.3 mph62%29.71 "HgN/A
2:00 PM82 °FPartly sunny.3 mph66%29.74 "HgN/A
1:00 PM81 °FPartly sunny.3 mph66%29.77 "HgN/A
12:00 PM79 °FBroken clouds.3 mph70%29.77 "HgN/A
11:00 AM79 °FClear.6 mph70%29.80 "Hg5 mi
10:00 AM75 °FScattered clouds.8 mph78%29.80 "Hg4 mi
9:00 AM72 °FFog.6 mph88%29.80 "Hg2 mi
8:00 AM70 °FFog.6 mph88%29.80 "Hg1 mi
7:00 AM68 °FLight rain. Fog.3 mph94%29.80 "Hg2 mi
6:00 AM68 °FFog.3 mph94%29.80 "Hg2 mi
5:00 AM68 °FFog.1 mph94%29.77 "Hg2 mi
4:00 AM68 °FFog.1 mph94%29.77 "Hg2 mi
3:00 AM70 °FFog.1 mph88%29.77 "Hg2 mi
2:00 AM70 °FFog.1 mph88%29.74 "Hg2 mi
1:00 AM70 °FFog.No wind88%29.77 "Hg2 mi
12:00 AM70 °FFog.1 mph88%29.80 "Hg3 mi
11:00 PM
Sun, May 29
70 °FFog.1 mph88%29.80 "Hg3 mi
10:00 PM70 °FFog.1 mph88%29.80 "Hg3 mi
Weather by CustomWeather, © 2016

See weather overviewHow to use our weather pages